FENGYUN 1C DEB, 31553

Orbit data source: Space-Track

FENGYUN 1C DEB, 31553 is space debris in SSO originally from a launch on Mon, 10 May 1999 UTC launched from the Taiyaun Space Center, China (TSC). Fengyun 1C debris stems from the Chinese weather satellite Fengyun-1C, which was intentionally destroyed by a Chinese anti-satellite missile in 2007. This event dramatically increased the amount of space debris, with thousands of trackable fragments posing hazards to satellites and human spaceflight. The Fengyun 1C debris cloud has become a focal point in discussions about space sustainability and the need for international regulations to prevent the creation of new debris.

Loading next visibility...
Identifier
31553, 1999-025BYU
Orbit
SSO
Country
Flag of CNCN / PRC
Related business
Manufacturer
Unknown
Mission
Spacecraft
Bus & Motor
Unknown
Mass
Unknown
Launch date (UTC)
1999-05-10 (27 years ago)
Launch vehicle
Unknown
Launch site
Taiyaun Space Center, China (TSC)
Object type
Payload
Rocket body
Debris
Shape & HBR
Unknown shape, 0.1 m
Radar Cross Section
Small (<0.1 m²)

Expand to show TLE details & history
Last TLE update: 8 hours ago

TLE from 8 hours ago
0 FENGYUN 1C DEB
1 31553U 99025BYU 26256.70171545  .00002351  00000-0  88503-3 0  9991
2 31553  98.9889 326.1446 0028210  20.4998 132.5585 14.32257479998437
Epoch: 2026-09-13T16:50Z
TLE epoch observation values (Epoch: 2026-09-13T16:50:28.214Z)
Latitude
26.38697°
Longitude
-94.68832°
Altitude
801.105 km
Speed
7.448 km/s
True Right ascension
10h 02m 29s
True Declination
26° 15' 04"
Sunlit
Object was in daylight at epoch
Visualization orbit readout
Latitude
Unknown
Longitude
Unknown
Altitude
Unknown
Speed
Unknown
Apparent Right ascension
Unknown
Apparent Declination
Unknown
Sunlit
N/A
Visualization observer readout
Local Sidereal Time
17:48:42
Azimuth
Unknown
Elevation
Unknown
Doppler factor
Unknown
Orbital elements
Apogee altitude
801.548 km
Perigee altitude
761.154 km
Semi-major axis
7,159.488 km
Eccentricity
0.00282
Inclination
98.9889°
RAAN
326.1446°
Arg. of periapsis
20.4998°
True anomaly
132.79604°
Mean anomaly
132.5585°
Eccentric anomaly
132.67733°
Mean motion
3.58278 °/min
Orbital period
100.48 mins
BSTAR
0.00088503
Loading maneuver chart data...
Computing Atmospheric mass density...
Loading historical data...
Loading historical data...
Loading historical data...
Loading historical data...
Loading historical data...
Loading historical data...
Loading historical data...

Documentation

Showing up to 5 results
|